Kamloops,

2:00 PM PDT on October 18, 2017 (GMT -0700)
Kamloops

Weather History for CYKA - March, 2013

Change the Weather History Date:

Sunday, March 3, 2013

  Actual Average Record
Temperature  
Mean Temperature 40 °F -  
Max Temperature 44 °F 51 °F 59 °F (2016)
Min Temperature 37 °F 31 °F 17 °F (2014)
Degree Days  
Heating Degree Days 24    
Moisture  
Dew Point 23 °F    
Average Humidity 49    
Maximum Humidity 70    
Minimum Humidity 31    
Precipitation  
Precipitation 0.00 in 0.01 in - ()
Sea Level Pressure  
Sea Level Pressure 30.13 in    
Wind  
Wind Speed 14 mph ()    
Max Wind Speed 28 mph    
Max Gust Speed 34 mph    
Averages and records for this station are not official NWS values.
T = Trace of Precipitation, MM = Missing Value Source: Averaged Metar Reports

Daily Weather History Graph

Daily Weather History Graph

Search for Another Location

Airport or City:

Trip Planner

Search our weather history database for the weather conditions in past years. The results will help you decide how hot, cold, wet, or windy it might be!

Date:

Astronomy

Mar. 03, 2013 Rise Set
Actual Time 6:40 AM PST 5:47 PM PST
Civil Twilight 6:08 AM PST 6:20 PM PST
Nautical Twilight 5:30 AM PST 6:58 PM PST
Astronomical Twilight 4:51 AM PST 7:36 PM PST
Moon 12:12 AM PST (3/3) 9:17 AM PST (3/3)
Length of Visible Light 12h 12m
Length of Day
11h 06m
Waning Gibbous, 62% of the Moon is Illuminated
Mar 3
Waning Gibbous
Mar 4
Last Quarter
Mar 11
New
Mar 19
First Quarter
Mar 27
Full

Hourly Weather History & Observations

Time (PST) Temp. Windchill Dew Point Humidity Pressure Visibility Wind Dir Wind Speed Gust Speed Precip Events Conditions
12:00 AM 41.0 °F 35.2 °F 32.0 °F 70% 29.96 in 40.0 mi West 9.2 mph - N/A   Mostly Cloudy
1:00 AM 41.0 °F 32.8 °F 26.6 °F 57% 29.96 in 40.0 mi West 16.1 mph 25.3 mph N/A   Mostly Cloudy
2:00 AM 41.0 °F 30.9 °F 23.0 °F 49% 29.99 in 40.0 mi West 24.2 mph - N/A   Mostly Cloudy
3:00 AM 41.0 °F 31.6 °F 21.2 °F 45% 30.00 in 40.0 mi West 20.7 mph 32.2 mph N/A   Overcast
4:00 AM 39 °F - 19 °F 31% 30.01 in 37 mi WNW 26.5 mph - -   Partly Cloudy
4:00 AM 39.2 °F 27.8 °F 19.4 °F 45% 30.01 in 40.0 mi WNW 27.6 mph 34.5 mph N/A   Overcast
5:00 AM 39.2 °F 30.5 °F 19.4 °F 45% 30.03 in 40.0 mi West 16.1 mph - N/A   Mostly Cloudy
6:00 AM 37.4 °F 28.2 °F 21.2 °F 52% 30.05 in 40.0 mi WNW 16.1 mph - N/A   Mostly Cloudy
7:00 AM 37.4 °F 30.3 °F 21.2 °F 52% 30.08 in 40.0 mi WNW 10.4 mph - N/A   Mostly Cloudy
8:00 AM 39.2 °F 31.2 °F 21.2 °F 49% 30.10 in 40.0 mi WNW 13.8 mph - N/A   Mostly Cloudy
9:00 AM 39.2 °F 31.2 °F 19.4 °F 45% 30.10 in 40.0 mi WNW 13.8 mph - N/A   Mostly Cloudy
10:00 AM 41 °F - 21 °F 32% 30.11 in 37 mi WNW 12.7 mph - -   Mostly Cloudy
10:00 AM 41.0 °F 34.3 °F 21.2 °F 45% 30.11 in 40.0 mi WNW 11.5 mph 18.4 mph N/A   Mostly Cloudy
11:00 AM 41.0 °F 33.1 °F 19.4 °F 42% 30.12 in 40.0 mi West 15.0 mph 23.0 mph N/A   Mostly Cloudy
12:00 PM 42.8 °F 35.1 °F 21.2 °F 42% 30.13 in 40.0 mi WNW 16.1 mph 21.9 mph N/A   Mostly Cloudy
1:00 PM 42.8 °F 34.5 °F 23.0 °F 46% 30.15 in 40.0 mi West 18.4 mph 28.8 mph N/A   Mostly Cloudy
2:00 PM 41.0 °F 35.2 °F 23.0 °F 49% 30.17 in 40.0 mi NNW 9.2 mph 18.4 mph N/A   Overcast
3:00 PM 41.0 °F 32.8 °F 24.8 °F 53% 30.19 in 40.0 mi West 16.1 mph 23.0 mph N/A   Overcast
4:00 PM 41 °F - 24 °F 38% 30.22 in 37 mi West 17.3 mph - -   Overcast
5:00 PM 41.0 °F 32.8 °F 24.8 °F 53% 30.23 in 40.0 mi West 16.1 mph - N/A   Overcast
7:00 PM 41.0 °F 33.9 °F 24.8 °F 53% 30.28 in 40.0 mi WNW 12.7 mph - N/A   Overcast
8:00 PM 41.0 °F 34.3 °F 24.8 °F 53% 30.28 in 40.0 mi West 11.5 mph - N/A   Overcast
9:00 PM 39.2 °F 32.0 °F 26.6 °F 61% 30.29 in 40.0 mi West 11.5 mph - N/A   Overcast
10:00 PM 39 °F - 26 °F 49% 30.30 in 37 mi West 13.8 mph - -   Scattered Clouds
10:00 PM 39.2 °F 31.2 °F 26.6 °F 61% 30.30 in 40.0 mi West 13.8 mph - N/A   Mostly Cloudy
11:00 PM 37.4 °F 30.8 °F 26.6 °F 65% 30.30 in 40.0 mi West 9.2 mph - N/A   Scattered Clouds